�N����,����,�~����,�C��,���x,�C��,����,���ϕ���,�ő�u�ԕ���,�ő厞����,���˗�,�I�_���x,�n�����x,�ő啗���N��,DTYPE
"21/10/28","00:10",0.0,12.0,90.2,1011.9,330.4,2.0,3.9,341.0,0.00,10.5,16.7,"00:08:20",1
"21/10/28","00:20",0.0,12.0,90.6,1011.9,324.5,2.0,3.4,324.3,0.00,10.6,16.6,"00:12:06",1
"21/10/28","00:30",0.0,11.8,90.9,1012.1,319.8,1.7,2.4,306.7,0.00,10.4,16.8,"00:22:16",1
"21/10/28","00:40",0.0,11.9,91.3,1012.1,322.3,2.0,3.5,321.6,0.00,10.6,16.7,"00:37:36",1
"21/10/28","00:50",0.0,11.8,91.7,1011.9,327.6,2.0,3.6,345.7,0.00,10.5,16.6,"00:48:34",1
"21/10/28","01:00",0.0,12.2,91.8,1011.9,322.5,2.3,4.3,334.5,0.00,10.9,16.5,"00:59:18",1
"21/10/28","01:10",0.0,12.2,91.9,1012.1,321.1,2.0,4.3,338.0,0.00,11.0,16.3,"01:01:00",1
"21/10/28","01:20",0.0,12.1,92.2,1012.1,316.3,2.0,3.9,332.1,0.00,10.9,16.4,"01:19:54",1
"21/10/28","01:30",0.0,12.1,92.4,1012.3,314.7,2.6,4.4,313.2,0.00,10.9,16.2,"01:29:06",1
"21/10/28","01:40",0.0,12.0,92.5,1012.3,326.7,2.2,3.9,321.2,0.00,10.9,16.4,"01:31:02",1
"21/10/28","01:50",0.0,11.8,92.7,1012.6,327.9,1.8,3.2,311.5,0.00,10.7,16.5,"01:44:22",1
"21/10/28","02:00",0.0,11.6,92.8,1012.8,316.5,1.6,3.6,344.1,0.00,10.5,16.5,"01:50:08",1
"21/10/28","02:10",0.0,11.3,93.1,1012.8,324.7,1.7,2.6,337.3,0.00,10.3,16.4,"02:05:00",1
"21/10/28","02:20",0.0,11.0,93.2,1012.6,318.0,1.1,1.9,322.8,0.00,10.0,16.4,"02:10:16",1
"21/10/28","02:30",0.0,10.6,93.4,1012.8,296.3,1.1,1.8,319.3,0.00,9.6,16.5,"02:28:56",1
"21/10/28","02:40",0.0,10.4,93.9,1012.6,300.0,1.2,2.6,341.1,0.00,9.5,16.4,"02:39:12",1
"21/10/28","02:50",0.0,10.5,93.7,1012.6,308.8,1.1,1.9,315.6,0.00,9.6,16.2,"02:40:40",1
"21/10/28","03:00",0.0,10.4,94.0,1012.8,322.2,1.3,2.1,319.0,0.00,9.5,16.3,"02:55:36",1
"21/10/28","03:10",0.0,10.4,94.2,1012.8,333.0,1.5,2.4,334.3,0.00,9.5,16.2,"03:00:40",1
"21/10/28","03:20",0.0,10.4,94.3,1013.3,316.6,1.7,2.6,334.3,0.00,9.6,16.1,"03:14:40",1
"21/10/28","03:30",0.0,10.6,94.5,1012.8,316.6,1.7,2.6,345.7,0.00,9.8,16.3,"03:24:08",1
"21/10/28","03:40",0.0,10.7,94.6,1012.8,312.1,1.1,1.9,330.2,0.00,9.9,16.3,"03:36:18",1
"21/10/28","03:50",0.0,10.9,94.7,1012.8,306.5,1.6,2.6,332.5,0.00,10.1,16.0,"03:41:12",1
"21/10/28","04:00",0.0,10.8,94.7,1012.8,325.5,1.6,2.6,342.0,0.00,10.0,16.1,"03:51:12",1
"21/10/28","04:10",0.0,10.4,94.9,1012.3,319.0,1.5,2.0,318.5,0.00,9.7,16.0,"04:06:08",1
"21/10/28","04:20",0.0,10.2,95.1,1012.6,302.5,0.8,1.3,293.5,0.00,9.5,16.2,"04:12:24",1
"21/10/28","04:30",0.0,10.1,95.2,1012.8,320.4,0.7,1.8,314.8,0.00,9.4,15.9,"04:29:20",1
"21/10/28","04:40",0.0,10.0,95.4,1012.6,322.7,1.6,2.2,318.5,0.00,9.3,16.2,"04:30:32",1
"21/10/28","04:50",0.0,10.0,95.6,1012.8,331.3,1.5,2.2,325.7,0.00,9.4,15.9,"04:40:32",1
"21/10/28","05:00",0.0,9.7,95.6,1013.0,307.7,1.2,2.0,327.4,0.00,9.1,16.0,"04:54:16",1
"21/10/28","05:10",0.0,9.5,95.8,1013.0,319.0,0.7,2.1,324.1,0.00,8.9,16.0,"05:09:40",1
"21/10/28","05:20",0.0,9.5,95.9,1013.0,307.6,1.3,2.1,289.6,0.00,8.9,15.9,"05:14:16",1
"21/10/28","05:30",0.0,9.4,96.0,1013.0,316.6,1.5,1.9,311.8,0.00,8.8,16.0,"05:27:20",1
"21/10/28","05:40",0.0,9.5,96.1,1013.3,322.9,1.5,2.1,310.4,0.00,9.0,15.7,"05:37:52",1
"21/10/28","05:50",0.0,9.0,96.1,1013.3,289.6,1.0,1.6,305.6,0.00,8.5,15.8,"05:40:16",1
"21/10/28","06:00",0.0,9.0,96.5,1013.0,333.7,0.6,1.3,307.3,0.00,8.5,15.7,"05:54:32",1
"21/10/28","06:10",0.0,8.7,96.5,1013.3,288.1,1.0,1.6,274.0,0.00,8.2,15.7,"06:00:16",1
"21/10/28","06:20",0.0,8.7,96.5,1013.3,312.7,1.5,2.0,310.4,0.00,8.2,15.6,"06:12:48",1
"21/10/28","06:30",0.0,8.5,96.7,1013.3,302.6,1.2,1.9,320.0,0.00,8.0,15.6,"06:22:40",1
"21/10/28","06:40",0.0,8.6,96.9,1013.0,304.5,1.2,2.7,337.7,0.00,8.2,15.7,"06:38:34",1
"21/10/28","06:50",0.0,8.7,97.0,1013.3,286.4,1.1,2.0,338.4,0.00,8.3,15.8,"06:40:08",1
"21/10/28","07:00",0.0,8.8,97.0,1013.5,305.6,1.2,2.4,324.5,0.00,8.4,15.7,"06:50:56",1
"21/10/28","07:10",0.0,9.0,97.1,1013.3,294.9,0.8,1.9,307.6,0.00,8.6,15.6,"07:05:52",1
"21/10/28","07:20",0.0,9.7,97.1,1013.5,282.0,0.7,1.6,257.6,0.00,9.3,15.5,"07:15:28",1
"21/10/28","07:30",0.0,10.0,96.9,1013.3,312.9,0.6,1.9,318.8,0.00,9.6,15.6,"07:22:48",1
"21/10/28","07:40",0.0,10.5,97.2,1013.8,267.0,0.6,1.6,326.0,0.02,10.1,15.4,"07:31:12",1
"21/10/28","07:50",0.0,11.3,97.0,1014.0,234.3,0.5,1.3,218.3,0.04,10.9,15.5,"07:48:16",1
"21/10/28","08:00",0.0,11.9,97.0,1014.2,248.8,0.6,1.3,264.9,0.04,11.5,15.3,"07:52:56",1
"21/10/28","08:10",0.0,12.6,96.9,1014.7,253.3,0.6,1.2,262.1,0.07,12.2,15.6,"08:00:56",1
"21/10/28","08:20",0.0,13.4,96.7,1014.9,300.4,0.6,1.8,319.8,0.10,12.9,15.5,"08:13:12",1
"21/10/28","08:30",0.0,14.0,96.5,1014.7,311.5,0.6,1.4,325.1,0.13,13.5,15.4,"08:25:44",1
"21/10/28","08:40",0.0,14.2,95.8,1014.9,255.7,0.5,0.9,252.0,0.13,13.6,15.3,"08:32:24",1
"21/10/28","08:50",0.0,14.4,95.4,1014.7,256.9,0.6,1.3,247.6,0.21,13.7,15.4,"08:45:44",1
"21/10/28","09:00",0.0,15.2,95.4,1014.9,262.0,0.3,0.9,228.1,0.21,14.5,15.3,"08:52:48",1
"21/10/28","09:10",0.0,15.1,94.5,1014.9,250.5,0.7,1.6,236.1,0.26,14.3,15.5,"09:08:32",1
"21/10/28","09:20",0.0,15.2,94.0,1015.2,244.3,0.7,1.7,249.6,0.27,14.3,15.6,"09:16:16",1
"21/10/28","09:30",0.0,16.2,92.8,1015.4,164.7,0.6,1.3,323.9,0.29,15.1,15.6,"09:21:20",1
"21/10/28","09:40",0.0,16.3,90.2,1015.2,199.1,0.7,1.7,242.5,0.23,14.7,15.6,"09:31:52",1
"21/10/28","09:50",0.0,16.4,87.7,1014.9,182.0,0.8,2.2,229.6,0.16,14.4,15.7,"09:41:44",1
"21/10/28","10:00",0.0,16.6,84.5,1014.7,164.8,0.5,1.3,139.1,0.12,14.0,15.8,"09:50:08",1
"21/10/28","10:10",0.0,16.8,81.9,1014.9,118.4,0.5,1.3,199.3,0.12,13.7,15.7,"10:07:28",1
"21/10/28","10:20",0.0,17.3,80.2,1014.2,100.2,0.6,1.4,106.9,0.15,13.9,15.8,"10:13:12",1
"21/10/28","10:30",0.0,18.2,78.0,1014.2,210.0,0.5,1.3,127.0,0.32,14.3,15.8,"10:25:20",1
"21/10/28","10:40",0.0,18.9,73.8,1014.0,224.4,0.8,2.2,143.3,0.36,14.2,15.8,"10:33:12",1
"21/10/28","10:50",0.0,19.0,69.8,1014.0,328.2,1.0,2.2,334.9,0.15,13.4,15.9,"10:47:44",1
"21/10/28","11:00",0.0,18.7,69.2,1013.5,352.2,0.8,2.0,345.0,0.10,13.0,16.0,"10:52:40",1
"21/10/28","11:10",0.0,18.6,69.1,1014.0,324.8,0.7,2.8,338.4,0.10,12.9,16.0,"11:08:08",1
"21/10/28","11:20",0.0,18.7,70.0,1013.5,271.9,0.8,1.9,243.6,0.19,13.2,15.9,"11:11:44",1
"21/10/28","11:30",0.0,19.3,68.4,1013.5,315.3,1.1,3.2,338.9,0.23,13.4,16.1,"11:22:56",1
"21/10/28","11:40",0.0,19.0,67.9,1013.5,16.7,0.8,2.0,21.4,0.14,13.0,16.2,"11:39:36",1
"21/10/28","11:50",0.0,19.3,68.3,1013.3,349.8,1.8,3.7,4.6,0.29,13.4,16.2,"11:44:16",1
"21/10/28","12:00",0.0,20.6,66.1,1013.0,314.9,1.1,2.8,306.8,0.46,14.1,16.4,"11:59:44",1
"21/10/28","12:10",0.0,20.9,64.2,1013.0,332.5,1.5,4.9,14.6,0.35,13.9,16.6,"12:05:36",1
"21/10/28","12:20",0.0,19.8,64.9,1013.0,335.3,2.5,4.8,343.6,0.16,13.1,16.3,"12:16:40",1
"21/10/28","12:30",0.0,19.2,66.8,1013.3,339.3,2.3,4.8,350.9,0.15,12.9,16.5,"12:21:04",1
"21/10/28","12:40",0.0,19.5,67.6,1013.0,346.9,2.5,5.5,351.8,0.27,13.4,16.7,"12:32:48",1
"21/10/28","12:50",0.0,19.6,65.9,1012.8,357.7,2.0,4.2,344.1,0.19,13.1,16.7,"12:44:56",1
"21/10/28","13:00",0.0,19.3,67.0,1013.0,352.6,1.6,3.2,9.1,0.11,13.1,16.7,"12:50:40",1
"21/10/28","13:10",0.0,19.7,67.0,1013.0,359.2,1.8,4.2,334.3,0.27,13.4,16.7,"13:06:08",1
"21/10/28","13:20",0.0,20.6,63.6,1012.6,358.7,1.5,3.3,355.3,0.46,13.5,17.0,"13:10:40",1
"21/10/28","13:30",0.0,21.2,60.3,1012.3,357.0,1.5,4.1,34.0,0.42,13.3,16.9,"13:27:04",1
"21/10/28","13:40",0.0,20.7,61.0,1012.3,9.2,1.5,3.4,343.2,0.26,13.0,16.8,"13:35:20",1
"21/10/28","13:50",0.0,20.4,60.0,1011.9,2.8,2.2,5.0,342.4,0.27,12.4,16.8,"13:49:20",1
"21/10/28","14:00",0.0,20.8,59.7,1012.1,347.1,2.6,5.5,307.5,0.39,12.7,17.1,"13:52:08",1
"21/10/28","14:10",0.0,20.4,58.7,1011.9,322.7,3.1,7.7,344.5,0.36,12.1,17.2,"14:05:04",1
"21/10/28","14:20",0.0,21.0,56.8,1012.1,326.7,2.6,5.4,353.8,0.37,12.2,17.2,"14:14:24",1
"21/10/28","14:30",0.0,21.3,55.5,1011.9,337.1,3.0,6.4,351.4,0.38,12.1,17.3,"14:24:00",1
"21/10/28","14:40",0.0,21.2,51.8,1011.9,359.0,2.3,5.4,345.0,0.33,10.9,17.3,"14:30:48",1
"21/10/28","14:50",0.0,20.8,50.7,1011.9,329.6,2.1,4.3,318.5,0.24,10.3,17.3,"14:42:08",1
"21/10/28","15:00",0.0,20.7,47.5,1012.1,341.7,2.6,6.0,339.0,0.24,9.2,17.2,"14:53:52",1
"21/10/28","15:10",0.0,21.1,47.9,1012.1,339.5,2.0,5.1,329.8,0.23,9.7,17.3,"15:00:32",1
"21/10/28","15:20",0.0,20.9,47.6,1012.1,327.9,2.1,5.5,311.6,0.21,9.4,17.5,"15:17:28",1
"21/10/28","15:30",0.0,20.7,48.3,1012.1,336.3,2.7,5.1,318.0,0.19,9.4,17.4,"15:22:56",1
"21/10/28","15:40",0.0,20.5,49.5,1012.3,345.1,2.8,5.7,349.5,0.17,9.6,17.7,"15:30:56",1
"21/10/28","15:50",0.0,20.2,51.9,1012.3,345.3,2.8,6.0,329.2,0.13,10.1,17.5,"15:46:56",1
"21/10/28","16:00",0.0,20.2,52.7,1012.8,353.5,2.6,5.5,29.7,0.12,10.3,17.5,"15:50:32",1
"21/10/28","16:10",0.0,19.7,55.0,1012.8,340.1,2.7,6.8,331.6,0.11,10.5,17.7,"16:05:28",1
"21/10/28","16:20",0.0,20.0,56.5,1012.8,2.0,1.6,3.4,33.1,0.09,11.1,17.4,"16:11:36",1
"21/10/28","16:30",0.0,20.2,56.9,1013.0,349.6,1.7,4.2,346.6,0.07,11.4,17.6,"16:21:52",1
"21/10/28","16:40",0.0,19.8,57.8,1013.0,342.9,2.1,5.5,348.4,0.05,11.3,17.6,"16:35:36",1
"21/10/28","16:50",0.0,19.5,59.0,1013.3,357.2,1.3,3.2,328.3,0.03,11.3,17.6,"16:41:36",1
"21/10/28","17:00",0.0,18.5,58.5,1013.5,330.8,1.8,4.2,339.1,0.00,10.3,17.6,"16:57:20",1
"21/10/28","17:10",0.0,18.0,59.7,1013.8,327.5,2.3,5.4,323.6,0.00,10.1,17.6,"17:06:16",1
"21/10/28","17:20",0.0,17.6,60.2,1014.0,328.4,2.1,4.1,348.4,0.00,9.8,17.6,"17:13:20",1
"21/10/28","17:30",0.0,17.2,61.3,1014.0,329.3,1.7,3.4,333.3,0.00,9.7,17.6,"17:24:24",1
"21/10/28","17:40",0.0,16.8,62.9,1014.2,338.1,1.5,2.8,340.4,0.00,9.7,17.5,"17:35:20",1
"21/10/28","17:50",0.0,16.3,64.5,1014.2,324.0,1.0,1.9,338.2,0.00,9.6,17.6,"17:40:02",1
"21/10/28","18:00",0.0,15.7,67.6,1014.2,331.5,1.1,1.8,306.6,0.00,9.8,17.6,"17:51:12",1
"21/10/28","18:10",0.0,15.1,69.8,1014.7,326.9,1.1,1.7,346.2,0.00,9.7,17.5,"18:09:52",1
"21/10/28","18:20",0.0,14.3,71.5,1014.5,329.5,1.0,1.7,343.0,0.00,9.3,17.5,"18:10:32",1
"21/10/28","18:30",0.0,13.9,73.1,1014.7,308.7,0.8,1.8,339.3,0.00,9.2,17.4,"18:25:52",1
"21/10/28","18:40",0.0,13.5,75.1,1014.5,305.4,1.0,1.6,310.9,0.00,9.2,17.5,"18:36:06",1
"21/10/28","18:50",0.0,13.4,77.6,1014.9,329.2,1.1,1.6,337.9,0.00,9.6,17.3,"18:42:02",1
"21/10/28","19:00",0.0,13.1,79.9,1014.9,321.4,1.3,1.8,336.6,0.00,9.8,17.4,"18:57:04",1
"21/10/28","19:10",0.0,12.9,82.0,1014.9,316.7,1.2,1.8,337.8,0.00,9.9,17.2,"19:02:06",1
"21/10/28","19:20",0.0,12.8,83.2,1014.9,309.9,1.1,1.7,317.7,0.00,10.1,17.3,"19:18:12",1
"21/10/28","19:30",0.0,12.7,84.4,1015.4,306.9,1.3,1.8,312.9,0.00,10.2,17.2,"19:21:36",1
"21/10/28","19:40",0.0,12.9,85.2,1015.4,308.4,1.0,1.8,313.1,0.00,10.5,17.2,"19:38:42",1
"21/10/28","19:50",0.0,13.2,85.6,1015.4,303.7,1.2,1.8,326.8,0.00,10.9,17.1,"19:41:12",1
"21/10/28","20:00",0.0,13.2,86.0,1015.4,306.8,1.3,2.4,341.8,0.00,11.0,17.2,"19:56:18",1
"21/10/28","20:10",0.0,13.3,86.2,1015.6,323.7,1.1,1.7,321.3,0.00,11.1,17.1,"20:07:36",1
"21/10/28","20:20",0.0,13.2,86.5,1015.4,297.8,1.1,1.8,315.6,0.00,11.0,17.2,"20:18:48",1
"21/10/28","20:30",0.0,13.3,86.8,1015.6,303.8,0.8,2.6,344.8,0.00,11.2,16.9,"20:29:50",1
"21/10/28","20:40",0.0,13.3,86.8,1015.2,319.6,1.0,2.4,327.1,0.00,11.2,17.0,"20:30:16",1
"21/10/28","20:50",0.0,13.1,87.0,1015.6,302.9,1.0,1.6,311.8,0.00,11.0,17.0,"20:45:28",1
"21/10/28","21:00",0.0,12.9,87.3,1015.9,307.7,1.0,1.7,334.4,0.00,10.9,17.0,"20:56:32",1
"21/10/28","21:10",0.0,13.0,87.7,1016.1,308.1,1.1,2.1,332.9,0.00,11.0,17.0,"21:07:38",1
"21/10/28","21:20",0.0,12.9,87.9,1015.9,306.6,0.7,2.0,338.4,0.00,11.0,16.9,"21:10:32",1
"21/10/28","21:30",0.0,12.9,88.2,1016.1,329.9,0.8,1.6,332.0,0.00,11.0,16.9,"21:21:52",1
"21/10/28","21:40",0.0,12.6,88.4,1015.9,313.5,1.2,1.8,305.6,0.00,10.8,16.9,"21:38:32",1
"21/10/28","21:50",0.0,12.4,88.8,1016.4,320.3,0.8,1.7,321.5,0.00,10.6,16.9,"21:45:00",1
"21/10/28","22:00",0.0,12.3,89.0,1016.4,303.3,1.1,2.0,319.9,0.00,10.6,16.7,"21:51:58",1
"21/10/28","22:10",0.0,12.2,89.3,1016.6,305.3,1.3,2.5,332.4,0.00,10.5,16.9,"22:09:28",1
"21/10/28","22:20",0.0,12.0,89.4,1016.6,311.3,1.3,2.0,312.2,0.00,10.4,16.5,"22:14:18",1
"21/10/28","22:30",0.0,12.0,89.7,1016.8,337.6,1.0,2.2,327.3,0.00,10.4,16.6,"22:22:00",1
"21/10/28","22:40",0.0,12.0,89.6,1016.6,315.7,1.5,2.8,325.8,0.00,10.4,16.7,"22:36:32",1
"21/10/28","22:50",0.0,11.8,89.6,1016.8,316.1,1.0,1.7,334.8,0.00,10.2,16.6,"22:45:08",1
"21/10/28","23:00",0.0,11.9,89.1,1016.6,315.6,1.2,2.1,330.6,0.00,10.2,16.5,"22:55:48",1
"21/10/28","23:10",0.0,11.8,88.5,1016.8,296.0,1.2,1.4,313.9,0.00,10.0,16.4,"23:02:00",1
"21/10/28","23:20",0.0,11.4,88.2,1016.6,310.6,1.3,2.5,314.6,0.00,9.6,16.4,"23:18:06",1
"21/10/28","23:30",0.0,11.0,88.3,1016.6,305.6,1.3,1.7,307.8,0.00,9.2,16.5,"23:23:20",1
"21/10/28","23:40",0.0,10.9,88.3,1016.8,290.8,1.2,1.9,299.6,0.00,9.1,16.5,"23:34:16",1
"21/10/28","23:50",0.0,10.6,88.4,1016.6,304.5,1.0,2.0,302.9,0.00,8.8,16.6,"23:48:02",1
"21/10/28","24:00",0.0,10.3,88.6,1016.6,304.1,1.3,1.8,320.6,0.00,8.5,16.4,"23:50:48",1
